This demonstration page uses our WeatherBlox Daily Observations layout. Learn more.

Left ArrowRight Arrow

38.20091, -84.87328

Hourly Observations for July 30, 2021

Temp ( °F °C ) Dew Point ( °F °C ) Humidity (%) Winds ( mph kmh ) Pressure ( in mb ) Visibility ( mi km ) Precip ( " mm )
12:53 am 00:53 Mostly Cloudy 83 28.3 76 24.4 79 79 W 7 11 29.89 1012 10 16 0.00 0.00
1:26 am 01:26 Cloudy with Heavy Rain 81 27.2 77 25 88 88 W 10 17 29.90 1013 2 3 0.13 3.30
1:31 am 01:31 Cloudy with Strong Thunderstorms 80 26.7 77 25 90 90 WNW 10 17 29.90 1013 1 2 0.19 4.83
1:37 am 01:37 Cloudy with Thunderstorms 80 26.7 77 25 90 90 NW 8 13 29.90 1013 3 5 0.19 4.83
1:53 am 01:53 Cloudy with Thunderstorms 80 26.7 77 25 90 90 WNW 6 9 29.91 1013 8 13 0.19 4.83
2:09 am 02:09 Mostly Cloudy with Nearby Thunderstorms 80 26.7 77 25 90 90 WNW 7 11 29.90 1013 8 13 0.00 0.00
2:40 am 02:40 Partly Cloudy 79 26.1 76 24.4 90 90 WNW 3 6 29.90 1013 8 13 0.00 0.00
2:53 am 02:53 Mostly Cloudy 79 26.1 76 24.4 90 90 WNW 7 11 29.92 1013 8 13 0.00 0.00
3:28 am 03:28 Mostly Cloudy 79 26.1 74 23.3 85 85 NNW 7 11 29.91 1013 10 16 0.00 0.00
3:53 am 03:53 Cloudy with Light Rain 77 25 73 22.8 88 88 NW 5 7 29.93 1014 9 14 0.00 0.00
4:53 am 04:53 Clear 76 24.4 72 22.2 88 88 Calm 29.94 1014 10 16 0.00 0.00
5:53 am 05:53 Partly Cloudy 73 22.8 71 21.7 94 94 Calm 29.95 1014 7 11 0.00 0.00
6:53 am 06:53 Sunny with Mist and Fog 73 22.8 71 21.7 94 94 Calm 29.98 1015 5 8 0.00 0.00
7:53 am 07:53 Mostly Sunny 76 24.4 72 22.2 88 88 NNE 5 7 29.98 1015 9 14 0.00 0.00
8:23 am 08:23 Mostly Cloudy 75 23.9 72 22.2 90 90 NE 6 9 29.98 1015 10 16 0.00 0.00
8:53 am 08:53 Cloudy 76 24.4 71 21.7 85 85 Calm 30.00 1016 9 14 0.00 0.00
9:53 am 09:53 Cloudy 76 24.4 71 21.7 85 85 NNW 5 7 30.00 1016 8 13 0.00 0.00
10:53 am 10:53 Cloudy 76 24.4 72 22.2 88 88 NW 7 11 30.01 1016 7 11 0.00 0.00
11:26 am 11:26 Cloudy 76 24.4 71 21.7 85 85 NNW 8 13 30.02 1017 8 13 0.00 0.00
11:36 am 11:36 Cloudy 76 24.4 70 21.1 82 82 NNW 7 11 30.03 1017 8 13 0.00 0.00
11:45 am 11:45 Cloudy 76 24.4 70 21.1 82 82 NNW 6 9 30.03 1017 8 13 0.00 0.00
11:53 am 11:53 Cloudy 76 24.4 70 21.1 82 82 NNW 9 15 30.03 1017 8 13 0.00 0.00
12:53 pm 12:53 Cloudy with Haze 76 24.4 70 21.1 82 82 NNW 7 11 30.04 1017 5 8 0.00 0.00
1:53 pm 13:53 Cloudy with Haze 78 25.6 70 21.1 76 76 VRB 5 7 30.03 1017 5 8 0.00 0.00
2:05 pm 14:05 Cloudy with Haze 79 26.1 70 21.1 74 74 VRB 3 6 30.02 1017 5 8 0.00 0.00
2:53 pm 14:53 Hazy 83 28.3 68 20 61 61 N 7 11 30.01 1016 6 10 0.00 0.00
3:53 pm 15:53 Mostly Cloudy with Haze 82 27.8 67 19.4 60 60 Calm 30.01 1016 6 10 0.00 0.00
4:53 pm 16:53 Mostly Sunny 84 28.9 69 20.6 61 61 Calm 30.01 1016 7 11 0.00 0.00
5:53 pm 17:53 Sunny 85 29.4 68 20 57 57 NNW 6 9 30.00 1016 8 13 0.00 0.00
6:53 pm 18:53 Sunny 84 28.9 66 18.9 55 55 N 6 9 30.00 1016 10 16 0.00 0.00
7:53 pm 19:53 Sunny 81 27.2 67 19.4 62 62 NW 3 6 29.99 1016 10 16 0.00 0.00
8:53 pm 20:53 Clear 75 23.9 68 20 79 79 Calm 30.00 1016 10 16 0.00 0.00
9:53 pm 21:53 Mostly Cloudy 75 23.9 67 19.4 76 76 NW 5 7 30.02 1017 10 16 0.00 0.00
10:53 pm 22:53 Clear 73 22.8 65 18.3 76 76 WNW 3 6 30.04 1017 8 13 0.00 0.00
11:53 pm 23:53 Partly Cloudy 72 22.2 64 17.8 76 76 NNW 6 9 30.04 1017 8 13 0.00 0.00

Powered by AerisWeather